Timestamp (UTC),Temp / °C,Chill / °C,HIndex / °C,Humid%,Dewpt / °C,Wind / ms¯¹,HiWind / ms¯¹,Winddir / °,Rain / mm,RainRate / mmhr¯¹,Pressure / hPa,InsideTemp / °C,InsideHumid%,Radiation / Wm¯²,UV
2016-05-13 00:00:00,9.5,8.4,9.5,86.0,7.3,2.2,7.2,22.5,0.0,0.0,1002.9,15.7,58.0,0,0
2016-05-13 00:05:00,9.5,8.4,9.5,86.0,7.3,2.2,5.8,0,0.0,0.0,1002.9,15.7,58.0,0,0
2016-05-13 00:10:00,9.5,9.5,9.5,86.0,7.3,1.3,4.0,315,0.0,0.0,1002.9,15.7,58.0,0,0
2016-05-13 00:15:00,9.6,8.2,9.6,86.0,7.3,2.7,5.4,0,0.0,0.0,1002.9,15.7,58.0,0,0
2016-05-13 00:20:00,9.5,8.4,9.5,86.0,7.3,2.2,4.9,337.5,0.0,0.0,1002.9,15.7,58.0,0,0
2016-05-13 00:25:00,9.5,8.8,9.5,86.0,7.3,1.8,4.9,45,0.0,0.0,1002.9,15.6,58.0,0,0
2016-05-13 00:30:00,9.5,9.5,9.5,86.0,7.3,1.3,3.6,337.5,0.0,0.0,1002.8,15.5,58.0,0,0
2016-05-13 00:35:00,9.5,9.5,9.5,86.0,7.3,0.9,4.0,247.5,0.0,0.0,1002.9,15.5,58.0,0,0
2016-05-13 00:40:00,9.5,8.4,9.5,86.0,7.3,2.2,4.5,45,0.0,0.0,1002.8,15.4,58.0,0,0
2016-05-13 00:45:00,9.5,8.8,9.5,86.0,7.3,1.8,4.9,270,0.0,0.0,1002.8,15.5,58.0,0,0
2016-05-13 00:50:00,9.4,7.1,9.4,86.0,7.2,4.5,9.8,22.5,0.0,0.0,1002.9,15.5,59.0,0,0
2016-05-13 00:55:00,9.4,7.8,9.4,86.0,7.2,3.1,6.3,315,0.0,0.0,1002.9,15.5,59.0,0,0
2016-05-13 01:00:00,9.4,8.0,9.4,87.0,7.4,2.7,5.4,0,0.0,0.0,1003.0,15.7,59.0,0,0
2016-05-13 01:05:00,9.4,7.8,9.4,87.0,7.4,3.1,6.3,0,0.0,0.0,1003.1,15.7,58.0,0,0
2016-05-13 01:10:00,9.4,7.5,9.4,87.0,7.4,3.6,7.2,45,0.0,0.0,1003.1,15.7,58.0,0,0
2016-05-13 01:15:00,9.4,7.7,9.4,87.0,7.3,3.1,6.3,337.5,0.0,0.0,1003.0,15.6,59.0,0,0
2016-05-13 01:20:00,9.4,8.0,9.4,87.0,7.3,2.7,5.8,45,0.0,0.0,1003.1,15.5,59.0,0,0
2016-05-13 01:25:00,9.4,7.5,9.4,87.0,7.3,3.6,7.2,337.5,0.0,0.0,1003.1,15.5,59.0,0,0
2016-05-13 01:30:00,9.4,9.4,9.4,87.0,7.3,1.3,5.4,315,0.0,0.0,1003.0,15.5,59.0,0,0
2016-05-13 01:35:00,9.4,8.0,9.4,87.0,7.3,2.7,5.8,0,0.0,0.0,1003.1,15.4,59.0,0,0
2016-05-13 01:40:00,9.4,8.0,9.4,87.0,7.3,2.7,5.4,292.5,0.0,0.0,1003.2,15.4,59.0,0,0
2016-05-13 01:45:00,9.3,7.2,9.3,87.0,7.3,4.0,8.9,0,0.0,0.0,1003.2,15.4,59.0,0,0
2016-05-13 01:50:00,9.3,7.2,9.3,87.0,7.3,4.0,8.9,337.5,0.0,0.0,1003.2,15.6,59.0,0,0
2016-05-13 01:55:00,9.3,7.4,9.3,87.0,7.3,3.6,8.0,22.5,0.0,0.0,1003.0,15.5,59.0,0,0
2016-05-13 02:00:00,9.3,7.6,9.3,87.0,7.2,3.1,8.9,0,0.0,0.0,1003.1,15.5,59.0,0,0
2016-05-13 02:05:00,9.3,8.2,9.3,88.0,7.4,2.2,6.3,315,0.0,0.0,1003.0,15.5,59.0,0,0
2016-05-13 02:10:00,9.3,7.6,9.3,88.0,7.4,3.1,6.3,315,0.0,0.0,1002.9,15.5,59.0,0,0
2016-05-13 02:15:00,9.3,7.1,9.3,87.0,7.2,4.0,8.9,0,0.0,0.0,1003.0,15.4,59.0,0,0
2016-05-13 02:20:00,9.2,7.5,9.2,88.0,7.3,3.1,7.2,315,0.0,0.0,1003.0,15.3,59.0,0,0
2016-05-13 02:25:00,9.2,7.5,9.2,88.0,7.3,3.1,9.4,0,0.0,0.0,1003.1,15.3,59.0,0,0
2016-05-13 02:30:00,9.3,7.8,9.3,87.0,7.2,2.7,6.7,315,0.0,0.0,1003.0,15.4,59.0,0,0
2016-05-13 02:35:00,9.3,7.8,9.3,88.0,7.4,2.7,5.4,337.5,0.0,0.0,1002.9,15.4,59.0,0,0
2016-05-13 02:40:00,9.3,8.2,9.3,88.0,7.4,2.2,6.3,315,0.0,0.0,1003.0,15.4,59.0,0,0
2016-05-13 02:45:00,9.3,7.8,9.3,88.0,7.4,2.7,8.5,45,0.0,0.0,1003.1,15.3,60.0,0,0
2016-05-13 02:50:00,9.2,7.0,9.2,88.0,7.3,4.0,9.8,0,0.0,0.0,1003.3,15.2,60.0,0,0
2016-05-13 02:55:00,9.2,7.4,9.2,88.0,7.3,3.1,6.7,22.5,0.0,0.0,1003.3,15.2,60.0,0,0
2016-05-13 03:00:00,9.2,7.4,9.2,88.0,7.3,3.1,6.3,45,0.0,0.0,1003.4,15.1,60.0,0,0
2016-05-13 03:05:00,9.2,7.0,9.2,88.0,7.3,4.0,8.9,0,0.0,0.0,1003.2,15.2,60.0,0,0
2016-05-13 03:10:00,9.1,7.1,9.1,88.0,7.2,3.6,8.9,22.5,0.0,0.0,1003.4,15.2,60.0,0,0
2016-05-13 03:15:00,9.1,7.6,9.1,88.0,7.2,2.7,5.4,22.5,0.0,0.0,1003.4,15.2,60.0,0,0
2016-05-13 03:20:00,9.1,7.3,9.1,88.0,7.2,3.1,6.3,0,0.0,0.0,1003.5,15.2,59.0,0,0
2016-05-13 03:25:00,9.1,7.6,9.1,88.0,7.2,2.7,6.3,315,0.0,0.0,1003.5,15.2,59.0,0,0
2016-05-13 03:30:00,9.1,7.3,9.1,88.0,7.2,3.1,7.2,22.5,0.0,0.0,1003.4,15.2,59.0,0,0
2016-05-13 03:35:00,9.1,7.3,9.1,88.0,7.2,3.1,6.3,0,0.0,0.0,1003.3,15.2,59.0,0,0
2016-05-13 03:40:00,9.1,7.1,9.1,88.0,7.2,3.6,8.5,337.5,0.0,0.0,1003.6,15.2,59.0,0,0
2016-05-13 03:45:00,9.0,6.8,9.0,88.0,7.1,4.0,10.7,292.5,0.0,0.0,1003.6,15.2,60.0,0,0
2016-05-13 03:50:00,9.0,7.2,9.0,88.0,7.1,3.1,7.2,0,0.0,0.0,1003.5,15.2,60.0,0,0
2016-05-13 03:55:00,9.0,7.8,9.0,88.0,7.1,2.2,6.3,315,0.0,0.0,1003.6,15.2,60.0,0,0
2016-05-13 04:00:00,8.9,7.8,8.9,88.0,7.1,2.2,5.4,337.5,0.0,0.0,1003.5,15.1,60.0,0,0
2016-05-13 04:05:00,8.9,7.2,8.9,88.0,7.1,3.1,5.8,0,0.0,0.0,1003.6,15.1,60.0,0,0
2016-05-13 04:10:00,8.9,7.4,8.9,88.0,7.1,2.7,5.8,337.5,0.0,0.0,1003.7,15.1,60.0,0,0
2016-05-13 04:15:00,8.9,6.4,8.9,88.0,7.0,4.5,8.0,45,0.0,0.0,1003.8,15.0,60.0,0,0
2016-05-13 04:20:00,8.9,6.6,8.9,88.0,7.0,4.0,7.2,0,0.0,0.0,1003.8,14.9,60.0,0,0
2016-05-13 04:25:00,8.8,6.4,8.8,88.0,7.0,4.5,8.9,0,0.0,0.0,1004.0,15.0,59.0,0,0
2016-05-13 04:30:00,8.8,6.8,8.8,88.0,7.0,3.6,7.2,337.5,0.0,0.0,1004.0,15.0,59.0,0,0
2016-05-13 04:35:00,8.9,6.9,8.9,88.0,7.0,3.6,6.3,0,0.0,0.0,1003.9,14.9,59.0,0,0
2016-05-13 04:40:00,8.9,7.4,8.9,88.0,7.0,2.7,5.4,0,0.0,0.0,1003.9,14.8,59.0,4,0
2016-05-13 04:45:00,8.9,7.1,8.9,88.0,7.0,3.1,6.7,0,0.0,0.0,1003.9,14.9,59.0,5,0
2016-05-13 04:50:00,8.9,7.1,8.9,88.0,7.0,3.1,6.7,0,0.0,0.0,1003.9,14.9,59.0,7,0
2016-05-13 04:55:00,8.8,6.8,8.8,87.0,6.8,3.6,7.2,22.5,0.0,0.0,1003.9,14.8,59.0,9,0
2016-05-13 05:00:00,8.8,6.8,8.8,87.0,6.8,3.6,6.7,0,0.0,0.0,1004.0,14.8,58.0,12,0
2016-05-13 05:05:00,8.8,6.5,8.8,87.0,6.7,4.0,9.4,0,0.0,0.0,1004.0,14.8,59.0,13,0
2016-05-13 05:10:00,8.8,7.0,8.8,87.0,6.7,3.1,6.7,45,0.0,0.0,1004.0,14.9,58.0,15,0
2016-05-13 05:15:00,8.8,7.0,8.8,87.0,6.7,3.1,8.5,337.5,0.0,0.0,1004.1,14.8,58.0,20,0
2016-05-13 05:20:00,8.7,6.2,8.7,86.0,6.5,4.5,8.9,0,0.0,0.0,1004.2,14.8,58.0,23,0
2016-05-13 05:25:00,8.7,6.9,8.7,86.0,6.5,3.1,5.8,315,0.0,0.0,1004.1,14.8,58.0,22,0
2016-05-13 05:30:00,8.8,6.7,8.8,86.0,6.6,3.6,6.7,0,0.0,0.0,1004.1,14.7,58.0,28,0
2016-05-13 05:35:00,8.7,6.6,8.7,86.0,6.5,3.6,8.0,337.5,0.0,0.0,1004.2,14.7,58.0,26,0
2016-05-13 05:40:00,8.7,6.4,8.7,85.0,6.3,4.0,10.3,0,0.0,0.0,1004.3,14.7,57.0,28,0
2016-05-13 05:45:00,8.8,7.2,8.8,89.0,7.1,2.7,4.9,0,0.0,0.0,1004.4,14.7,57.0,29,0
2016-05-13 05:50:00,8.8,7.0,8.8,85.0,6.4,3.1,7.2,337.5,0.0,0.0,1004.3,14.7,57.0,28,0
2016-05-13 05:55:00,8.8,7.0,8.8,85.0,6.4,3.1,7.2,337.5,0.0,0.0,1004.3,14.7,57.0,37,0
2016-05-13 06:00:00,8.7,6.2,8.7,84.0,6.2,4.5,9.4,315,0.0,0.0,1004.3,14.6,57.0,46,0
2016-05-13 06:05:00,8.8,6.5,8.8,84.0,6.2,4.0,7.2,315,0.0,0.0,1004.4,14.7,57.0,58,0
2016-05-13 06:10:00,8.8,6.7,8.8,84.0,6.2,3.6,6.7,0,0.0,0.0,1004.4,14.7,57.0,74,0
2016-05-13 06:15:00,8.8,6.7,8.8,84.0,6.2,3.6,9.4,337.5,0.0,0.0,1004.4,14.7,56.0,83,0
2016-05-13 06:20:00,8.8,6.6,8.8,83.0,6.1,4.0,9.4,0,0.0,0.0,1004.5,14.7,56.0,118,0.3
2016-05-13 06:25:00,8.9,6.9,8.9,83.0,6.2,3.6,8.5,0,0.0,0.0,1004.6,14.7,55.0,112,0.1
2016-05-13 06:30:00,8.9,7.2,8.9,82.0,6.0,3.1,9.4,337.5,0.0,0.0,1004.7,14.7,55.0,112,0.3
2016-05-13 06:35:00,9.0,7.5,9.0,82.0,6.1,2.7,6.7,0,0.0,0.0,1004.7,14.8,55.0,85,0
2016-05-13 06:40:00,9.1,8.3,9.1,82.0,6.1,1.8,3.6,45,0.0,0.0,1004.7,14.9,55.0,71,0
2016-05-13 06:45:00,9.1,8.0,9.1,82.0,6.2,2.2,4.0,45,0.0,0.0,1004.7,14.9,55.0,79,0
2016-05-13 06:50:00,9.2,7.7,9.2,82.0,6.3,2.7,7.2,22.5,0.0,0.0,1004.8,14.8,55.0,81,0
2016-05-13 06:55:00,9.1,6.8,9.1,81.0,6.0,4.0,8.5,337.5,0.0,0.0,1004.8,14.8,54.0,94,0.5
2016-05-13 07:00:00,9.0,6.8,9.0,80.0,5.7,4.0,8.9,0,0.0,0.0,1004.8,15.0,53.0,141,0.7
2016-05-13 07:05:00,9.2,7.5,9.2,79.0,5.8,3.1,6.3,0,0.0,0.0,1004.7,15.2,53.0,365,1.1
2016-05-13 07:10:00,9.6,7.4,9.6,77.0,5.7,4.0,8.0,0,0.0,0.0,1004.7,15.3,51.0,311,1.1
2016-05-13 07:15:00,9.8,8.2,9.8,76.0,5.7,3.1,6.7,0,0.0,0.0,1004.8,15.4,52.0,385,1.3
2016-05-13 07:20:00,9.9,7.7,9.9,75.0,5.7,4.5,8.0,22.5,0.0,0.0,1004.9,15.3,50.0,381,1.4
2016-05-13 07:25:00,10.0,10.0,10.0,74.0,5.6,3.1,8.0,337.5,0.0,0.0,1004.9,15.4,51.0,416,1.5
2016-05-13 07:30:00,10.2,10.2,10.2,73.0,5.5,2.7,5.8,292.5,0.0,0.0,1004.9,15.6,50.0,355,1.4
2016-05-13 07:35:00,10.6,10.6,10.6,74.0,6.1,1.8,4.5,22.5,0.0,0.0,1005.0,15.7,50.0,355,1.4
2016-05-13 07:40:00,10.4,10.4,10.4,72.0,5.6,2.7,5.4,0,0.0,0.0,1005.0,15.8,49.0,225,1.3
2016-05-13 07:45:00,10.1,10.1,10.1,72.0,5.3,4.0,8.0,22.5,0.0,0.0,1005.2,15.7,48.0,278,1.5
2016-05-13 07:50:00,10.2,10.2,10.2,72.0,5.3,3.6,8.5,0,0.0,0.0,1005.2,15.7,49.0,252,1.6
2016-05-13 07:55:00,10.3,10.3,10.3,72.0,5.5,3.1,6.7,22.5,0.0,0.0,1005.2,15.8,49.0,370,1.7
2016-05-13 08:00:00,10.2,10.2,10.2,72.0,5.4,3.6,7.2,0,0.0,0.0,1005.3,15.9,48.0,227,1.5
2016-05-13 08:05:00,10.1,10.1,10.1,72.0,5.3,3.1,6.7,0,0.0,0.0,1005.4,16.2,48.0,222,1.6
2016-05-13 08:10:00,10.1,10.1,10.1,71.0,5.0,4.5,8.9,22.5,0.0,0.0,1005.4,16.2,47.0,237,1.9
2016-05-13 08:15:00,10.1,10.1,10.1,71.0,5.0,4.9,9.4,22.5,0.0,0.0,1005.4,16.1,47.0,529,2.3
2016-05-13 08:20:00,10.3,10.3,10.3,71.0,5.3,3.6,7.2,22.5,0.0,0.0,1005.5,16.0,48.0,273,2.1
2016-05-13 08:25:00,10.4,10.4,10.4,70.0,5.2,3.6,7.2,22.5,0.0,0.0,1005.3,16.1,47.0,285,2
2016-05-13 08:30:00,10.3,10.3,10.3,70.0,5.0,4.0,6.7,0,0.0,0.0,1005.4,16.0,47.0,258,2
2016-05-13 08:35:00,10.3,10.3,10.3,70.0,5.0,3.6,8.0,45,0.0,0.0,1005.2,16.1,47.0,242,2
2016-05-13 08:40:00,10.3,10.3,10.3,70.0,5.0,4.0,6.7,45,0.0,0.0,1005.4,16.2,47.0,283,2.1
2016-05-13 08:45:00,10.4,10.4,10.4,71.0,5.4,3.1,8.5,22.5,0.0,0.0,1005.4,16.2,47.0,273,2.2
2016-05-13 08:50:00,10.7,10.7,10.7,70.0,5.5,4.5,8.5,22.5,0.0,0.0,1005.4,16.1,47.0,408,2.7
2016-05-13 08:55:00,10.9,10.9,10.9,69.0,5.5,3.6,6.7,22.5,0.0,0.0,1005.2,16.3,47.0,508,3.1
2016-05-13 09:00:00,11.3,11.3,11.3,68.0,5.6,3.6,8.0,0,0.0,0.0,1005.3,16.3,46.0,753,3.4
2016-05-13 09:05:00,11.1,11.1,11.1,67.0,5.2,4.9,8.9,22.5,0.0,0.0,1005.3,16.3,46.0,282,2.8
2016-05-13 09:10:00,10.9,10.9,10.9,68.0,5.3,3.6,6.3,45,0.0,0.0,1005.4,16.3,47.0,304,3
2016-05-13 09:15:00,11.4,11.4,11.4,68.0,5.7,3.1,8.5,0,0.0,0.0,1005.4,16.4,47.0,669,3.3
2016-05-13 09:20:00,11.4,11.4,11.4,68.0,5.7,3.1,5.4,45,0.0,0.0,1005.4,16.6,47.0,364,3.2
2016-05-13 09:25:00,11.7,11.7,11.7,67.0,5.8,3.1,6.3,22.5,0.0,0.0,1005.5,16.7,46.0,271,2.6
2016-05-13 09:30:00,11.5,11.5,11.5,67.0,5.6,3.1,6.7,0,0.0,0.0,1005.6,16.8,46.0,311,2.6
2016-05-13 09:35:00,11.4,11.4,11.4,68.0,5.7,2.2,4.9,337.5,0.0,0.0,1005.7,16.9,46.0,292,2.5
2016-05-13 09:40:00,11.5,11.5,11.5,68.0,5.8,2.7,5.8,315,0.0,0.0,1005.7,17.2,46.0,270,2.4
2016-05-13 09:45:00,11.2,11.2,11.2,70.0,5.9,4.5,8.0,315,0.0,0.0,1005.7,17.2,46.0,277,2.2
2016-05-13 09:50:00,11.1,11.1,11.1,71.0,6.0,3.1,5.8,45,0.0,0.0,1005.8,17.2,46.0,216,1.8
2016-05-13 09:55:00,10.9,10.9,10.9,71.0,5.9,2.2,5.4,45,0.0,0.0,1005.8,17.2,46.0,258,2
2016-05-13 10:00:00,10.9,10.9,10.9,72.0,6.1,3.1,6.7,45,0.0,0.0,1006.0,17.3,46.0,360,2.4
2016-05-13 10:05:00,11.2,11.2,11.2,72.0,6.3,2.7,8.0,0,0.0,0.0,1005.8,17.5,47.0,293,1.9
2016-05-13 10:10:00,11.3,11.3,11.3,72.0,6.4,2.7,5.8,0,0.0,0.0,1006.0,17.7,46.0,227,1.5
2016-05-13 10:15:00,11.3,11.3,11.3,72.0,6.4,2.2,4.5,0,0.0,0.0,1005.9,17.7,46.0,206,1.6
2016-05-13 10:20:00,11.1,11.1,11.1,72.0,6.2,4.0,7.2,0,0.0,0.0,1006.1,17.6,46.0,226,1.6
2016-05-13 10:25:00,11.1,11.1,11.1,73.0,6.4,3.1,8.0,337.5,0.0,0.0,1006.1,17.7,47.0,281,1.8
2016-05-13 10:30:00,11.0,11.0,11.0,73.0,6.3,4.0,6.7,0,0.0,0.0,1006.1,17.6,47.0,335,2.3
2016-05-13 10:35:00,10.9,10.9,10.9,72.0,6.1,4.0,8.0,0,0.0,0.0,1006.1,17.7,46.0,373,2.8
2016-05-13 10:40:00,11.2,11.2,11.2,71.0,6.2,3.1,6.3,0,0.0,0.0,1006.2,17.8,46.0,389,2.9
2016-05-13 10:45:00,11.4,11.4,11.4,71.0,6.4,3.1,6.7,337.5,0.0,0.0,1006.3,18.1,45.0,389,2.8
2016-05-13 10:50:00,11.3,11.3,11.3,72.0,6.5,2.7,8.0,315,0.0,0.0,1006.3,18.1,46.0,299,2.2
2016-05-13 10:55:00,11.1,11.1,11.1,73.0,6.4,4.5,8.0,0,0.0,0.0,1006.4,18.1,46.0,250,1.8
2016-05-13 11:00:00,10.8,10.8,10.8,75.0,6.6,2.2,5.4,22.5,0.0,0.0,1006.3,17.7,47.0,173,1.3
2016-05-13 11:05:00,10.7,10.7,10.7,75.0,6.4,3.6,6.3,45,0.0,0.0,1006.5,17.5,47.0,180,1.4
2016-05-13 11:10:00,10.6,10.6,10.6,76.0,6.5,3.1,6.7,0,0.0,0.0,1006.5,17.5,48.0,175,1.3
2016-05-13 11:15:00,10.4,10.4,10.4,77.0,6.6,2.7,5.8,22.5,0.0,0.0,1006.4,17.4,48.0,197,1.5
2016-05-13 11:20:00,10.6,10.6,10.6,76.0,6.5,2.2,5.8,315,0.0,0.0,1006.5,17.5,48.0,214,1.7
2016-05-13 11:25:00,10.4,10.4,10.4,76.0,6.4,3.6,7.2,337.5,0.0,0.0,1006.5,17.4,48.0,172,1.4
2016-05-13 11:30:00,10.4,10.4,10.4,76.0,6.4,3.6,7.2,0,0.0,0.0,1006.5,17.4,48.0,105,0.9
2016-05-13 11:35:00,10.3,10.3,10.3,76.0,6.3,3.1,6.3,315,0.0,0.0,1006.5,17.4,48.0,113,0.9
2016-05-13 11:40:00,10.3,10.3,10.3,76.0,6.2,3.6,6.3,0,0.0,0.0,1006.6,17.3,48.0,140,1.2
2016-05-13 11:45:00,10.2,10.2,10.2,76.0,6.2,4.0,8.0,0,0.0,0.0,1006.7,17.4,48.0,163,1.5
2016-05-13 11:50:00,10.2,10.2,10.2,77.0,6.4,3.1,5.8,22.5,0.0,0.0,1006.5,17.4,48.0,169,1.3
2016-05-13 11:55:00,10.2,10.2,10.2,77.0,6.4,3.1,7.2,315,0.0,0.0,1006.6,17.4,48.0,153,1.2
2016-05-13 12:00:00,10.2,10.2,10.2,77.0,6.4,3.6,6.7,337.5,0.0,0.0,1006.7,17.4,48.0,155,1.2
2016-05-13 12:05:00,10.2,10.2,10.2,77.0,6.3,3.1,6.3,315,0.0,0.0,1006.7,17.5,48.0,141,1.1
2016-05-13 12:10:00,10.1,10.1,10.1,77.0,6.3,3.6,6.3,337.5,0.0,0.0,1006.6,17.3,48.0,131,1
2016-05-13 12:15:00,10.1,10.1,10.1,78.0,6.4,2.7,4.9,0,0.0,0.0,1006.6,17.2,48.0,158,1.2
2016-05-13 12:20:00,10.1,10.1,10.1,78.0,6.4,2.2,5.4,337.5,0.0,0.0,1006.7,17.3,48.0,169,1.3
2016-05-13 12:25:00,10.1,10.1,10.1,78.0,6.4,2.7,5.8,0,0.0,0.0,1006.7,17.3,48.0,163,1.3
2016-05-13 12:30:00,10.1,10.1,10.1,77.0,6.3,3.1,6.3,0,0.0,0.0,1006.8,17.3,48.0,167,1.3
2016-05-13 12:35:00,10.1,10.1,10.1,77.0,6.2,2.7,5.8,337.5,0.0,0.0,1006.8,17.3,48.0,172,1.4
2016-05-13 12:40:00,10.1,10.1,10.1,77.0,6.2,3.6,7.2,315,0.0,0.0,1006.8,17.3,48.0,173,1.3
2016-05-13 12:45:00,10.0,10.0,10.0,76.0,6.0,3.6,7.2,22.5,0.0,0.0,1006.8,17.3,47.0,196,1.5
2016-05-13 12:50:00,10.0,10.0,10.0,76.0,6.0,2.7,5.4,22.5,0.0,0.0,1006.8,17.4,47.0,212,1.7
2016-05-13 12:55:00,9.9,8.1,9.9,76.0,5.9,3.6,6.3,22.5,0.0,0.0,1006.9,17.3,47.0,185,1.4
2016-05-13 13:00:00,9.8,8.5,9.8,76.0,5.8,2.7,6.3,337.5,0.0,0.0,1007.0,17.2,47.0,182,1.3
2016-05-13 13:05:00,9.8,8.2,9.8,75.0,5.6,3.1,6.7,0,0.0,0.0,1007.0,17.2,46.0,194,1.4
2016-05-13 13:10:00,9.8,8.2,9.8,75.0,5.6,3.1,5.8,22.5,0.0,0.0,1007.0,17.2,46.0,181,1.3
2016-05-13 13:15:00,9.9,9.2,9.9,75.0,5.7,1.8,5.4,337.5,0.0,0.0,1007.1,17.2,46.0,181,1.3
2016-05-13 13:20:00,9.9,8.4,9.9,74.0,5.5,3.1,6.3,22.5,0.0,0.0,1007.1,17.2,46.0,185,1.4
2016-05-13 13:25:00,9.9,8.1,9.9,74.0,5.5,3.6,5.8,45,0.0,0.0,1007.3,17.2,46.0,150,1.1
2016-05-13 13:30:00,9.9,8.3,9.9,74.0,5.5,3.1,6.3,45,0.0,0.0,1007.2,16.9,46.0,124,0.9
2016-05-13 13:35:00,9.8,7.9,9.8,74.0,5.4,3.6,6.7,22.5,0.0,0.0,1007.3,16.7,46.0,143,1
2016-05-13 13:40:00,9.8,8.4,9.8,74.0,5.4,2.7,5.4,22.5,0.0,0.0,1007.4,16.7,46.0,143,1
2016-05-13 13:45:00,9.8,8.4,9.8,74.0,5.4,2.7,5.8,0,0.0,0.0,1007.5,16.8,47.0,150,1
2016-05-13 13:50:00,9.7,8.7,9.7,74.0,5.3,2.2,4.9,0,0.0,0.0,1007.5,16.8,46.0,174,1.1
2016-05-13 13:55:00,9.8,8.7,9.8,74.0,5.4,2.2,4.5,45,0.0,0.0,1007.3,16.9,46.0,243,1.7
2016-05-13 14:00:00,9.8,8.4,9.8,73.0,5.2,2.7,5.4,45,0.0,0.0,1007.2,16.9,45.0,208,1.4
2016-05-13 14:05:00,9.8,8.8,9.8,73.0,5.2,2.2,6.3,22.5,0.0,0.0,1007.2,16.9,45.0,191,1.3
2016-05-13 14:10:00,9.9,8.6,9.9,72.0,5.1,2.7,5.4,0,0.0,0.0,1007.4,17.2,45.0,193,1.3
2016-05-13 14:15:00,10.1,10.1,10.1,72.0,5.2,2.7,6.3,337.5,0.0,0.0,1007.4,17.2,45.0,211,1.4
2016-05-13 14:20:00,10.2,10.2,10.2,72.0,5.3,3.1,5.4,0,0.0,0.0,1007.3,17.4,44.0,199,1.3
2016-05-13 14:25:00,10.2,10.2,10.2,72.0,5.3,4.0,9.4,0,0.0,0.0,1007.5,17.4,44.0,190,1.1
2016-05-13 14:30:00,10.1,10.1,10.1,72.0,5.3,2.7,7.2,0,0.0,0.0,1007.7,17.3,44.0,195,1.2
2016-05-13 14:35:00,10.1,10.1,10.1,72.0,5.2,3.1,6.7,337.5,0.0,0.0,1007.5,17.3,45.0,209,1.4
2016-05-13 14:40:00,10.0,10.0,10.0,72.0,5.2,3.6,8.5,337.5,0.0,0.0,1007.5,17.4,45.0,193,1.2
2016-05-13 14:45:00,9.9,8.4,9.9,73.0,5.3,3.1,6.3,0,0.0,0.0,1007.7,17.3,44.0,136,0.7
2016-05-13 14:50:00,9.9,8.3,9.9,73.0,5.3,3.1,6.3,315,0.0,0.0,1007.6,17.1,45.0,100,0.3
2016-05-13 14:55:00,9.8,7.9,9.8,73.0,5.2,3.6,5.8,0,0.0,0.0,1007.8,16.9,46.0,90,0
2016-05-13 15:00:00,9.5,7.6,9.5,73.0,4.9,3.6,7.2,0,0.0,0.0,1007.8,16.6,46.0,110,0.3
2016-05-13 15:05:00,9.3,7.6,9.3,74.0,4.9,3.1,6.3,22.5,0.0,0.0,1007.9,16.6,46.0,114,0.5
2016-05-13 15:10:00,9.3,8.5,9.3,74.0,4.9,1.8,6.3,0,0.0,0.0,1007.8,16.6,46.0,115,0.5
2016-05-13 15:15:00,9.2,7.8,9.2,74.0,4.8,2.7,7.2,22.5,0.0,0.0,1007.9,16.6,46.0,117,0.4
2016-05-13 15:20:00,9.2,7.8,9.2,74.0,4.8,2.7,5.4,0,0.0,0.0,1008.0,16.6,46.0,128,0.6
2016-05-13 15:25:00,9.2,7.7,9.2,74.0,4.8,2.7,5.8,0,0.0,0.0,1007.9,16.6,45.0,147,0.7
2016-05-13 15:30:00,9.2,8.1,9.2,73.0,4.6,2.2,5.4,337.5,0.0,0.0,1007.8,16.6,45.0,157,0.8
2016-05-13 15:35:00,9.3,8.2,9.3,73.0,4.7,2.2,5.4,22.5,0.0,0.0,1007.8,16.6,45.0,150,0.8
2016-05-13 15:40:00,9.3,8.6,9.3,73.0,4.7,1.8,4.0,0,0.0,0.0,1007.9,16.6,45.0,124,0.4
2016-05-13 15:45:00,9.4,8.0,9.4,72.0,4.6,2.7,5.4,45,0.0,0.0,1007.9,16.6,44.0,100,0.3
2016-05-13 15:50:00,9.4,7.8,9.4,71.0,4.5,3.1,5.8,22.5,0.0,0.0,1008.0,16.3,44.0,112,0
2016-05-13 15:55:00,9.4,8.0,9.4,71.0,4.4,2.7,5.4,45,0.0,0.0,1007.9,16.4,44.0,108,0
2016-05-13 16:00:00,9.4,7.5,9.4,71.0,4.5,3.6,6.3,337.5,0.0,0.0,1007.9,16.4,44.0,115,0
2016-05-13 16:05:00,9.4,8.0,9.4,71.0,4.5,2.7,5.4,337.5,0.0,0.0,1007.9,16.4,44.0,103,0
2016-05-13 16:10:00,9.5,8.8,9.5,71.0,4.5,1.8,4.0,315,0.0,0.0,1008.0,16.4,45.0,75,0
2016-05-13 16:15:00,9.4,7.8,9.4,72.0,4.7,3.1,5.4,45,0.0,0.0,1008.1,16.4,44.0,59,0
2016-05-13 16:20:00,9.3,7.8,9.3,72.0,4.5,2.7,6.7,45,0.0,0.0,1008.2,16.2,45.0,60,0
2016-05-13 16:25:00,9.1,7.4,9.1,72.0,4.3,3.1,6.7,315,0.0,0.0,1008.1,16.1,44.0,54,0
2016-05-13 16:30:00,9.0,7.5,9.0,71.0,4.0,2.7,6.3,337.5,0.0,0.0,1008.2,16.1,44.0,71,0
2016-05-13 16:35:00,8.9,7.2,8.9,71.0,4.0,3.1,5.4,0,0.0,0.0,1008.2,16.0,44.0,90,0
2016-05-13 16:40:00,8.9,7.2,8.9,71.0,4.0,3.1,6.3,337.5,0.0,0.0,1008.2,15.9,44.0,89,0
2016-05-13 16:45:00,8.9,7.1,8.9,71.0,3.9,3.1,6.3,22.5,0.0,0.0,1008.2,15.7,44.0,67,0
2016-05-13 16:50:00,8.8,7.3,8.8,71.0,3.9,2.7,5.4,337.5,0.0,0.0,1008.2,15.6,44.0,62,0
2016-05-13 16:55:00,8.8,7.6,8.8,71.0,3.9,2.2,5.4,0,0.0,0.0,1008.2,15.5,45.0,67,0
2016-05-13 17:00:00,8.9,8.9,8.9,71.0,3.9,0.9,4.5,315,0.0,0.0,1008.1,15.6,45.0,78,0
2016-05-13 17:05:00,8.9,7.7,8.9,71.0,3.9,2.2,4.5,22.5,0.0,0.0,1008.1,15.5,45.0,51,0
2016-05-13 17:10:00,8.9,7.8,8.9,71.0,4.0,2.2,6.3,337.5,0.0,0.0,1008.3,15.4,45.0,41,0
2016-05-13 17:15:00,8.8,7.6,8.8,71.0,3.9,2.2,5.4,315,0.0,0.0,1008.2,15.2,45.0,57,0
2016-05-13 17:20:00,8.7,7.2,8.7,71.0,3.8,2.7,6.7,45,0.0,0.0,1008.2,15.2,45.0,52,0
2016-05-13 17:25:00,8.7,7.8,8.7,72.0,3.9,1.8,5.4,67.5,0.0,0.0,1008.2,15.3,46.0,40,0
2016-05-13 17:30:00,8.6,7.4,8.6,73.0,4.0,2.2,4.9,0,0.0,0.0,1008.3,15.4,46.0,54,0
2016-05-13 17:35:00,8.4,6.9,8.4,74.0,4.1,2.7,7.2,22.5,0.0,0.0,1008.5,15.2,47.0,93,0
2016-05-13 17:40:00,8.3,8.3,8.3,75.0,4.2,1.3,4.9,337.5,0.0,0.0,1008.4,15.4,48.0,137,0
2016-05-13 17:45:00,8.2,7.3,8.2,76.0,4.2,1.8,4.0,45,0.0,0.0,1008.4,15.4,48.0,157,0
2016-05-13 17:50:00,8.1,8.1,8.1,77.0,4.3,1.3,3.6,22.5,0.0,0.0,1008.5,15.2,48.0,102,0
2016-05-13 17:55:00,8.1,8.1,8.1,77.0,4.3,1.3,4.0,22.5,0.0,0.0,1008.4,15.2,49.0,69,0
2016-05-13 18:00:00,8.0,8.0,8.0,78.0,4.4,1.3,2.7,0,0.0,0.0,1008.4,15.1,49.0,55,0
2016-05-13 18:05:00,8.0,8.0,8.0,79.0,4.6,1.3,3.1,0,0.0,0.0,1008.4,14.9,50.0,41,0
2016-05-13 18:10:00,8.0,6.7,8.0,79.0,4.6,2.2,4.0,22.5,0.0,0.0,1008.4,14.9,49.0,37,0
2016-05-13 18:15:00,8.0,7.1,8.0,79.0,4.6,1.8,4.0,22.5,0.0,0.0,1008.5,15.0,50.0,37,0
2016-05-13 18:20:00,8.0,7.1,8.0,79.0,4.6,1.8,4.0,337.5,0.0,0.0,1008.6,15.0,50.0,45,0
2016-05-13 18:25:00,8.0,8.0,8.0,80.0,4.8,0.9,4.0,45,0.0,0.0,1008.7,15.0,50.0,33,0
2016-05-13 18:30:00,8.0,8.0,8.0,79.0,4.6,1.3,4.0,0,0.0,0.0,1008.7,14.9,49.0,16,0
2016-05-13 18:35:00,8.0,6.7,8.0,79.0,4.6,2.2,5.4,45,0.0,0.0,1009.0,14.8,49.0,13,0
2016-05-13 18:40:00,7.9,7.0,7.9,78.0,4.3,1.8,5.4,0,0.0,0.0,1008.9,14.7,49.0,18,0
2016-05-13 18:45:00,7.9,7.9,7.9,78.0,4.3,1.3,2.7,22.5,0.0,0.0,1009.0,14.7,49.0,18,0
2016-05-13 18:50:00,7.9,7.9,7.9,78.0,4.3,0.9,3.6,337.5,0.0,0.0,1008.9,14.7,49.0,15,0
2016-05-13 18:55:00,7.9,7.9,7.9,78.0,4.3,1.3,2.7,45,0.0,0.0,1008.9,14.7,49.0,14,0
2016-05-13 19:00:00,7.9,7.9,7.9,78.0,4.3,0.9,2.2,45,0.0,0.0,1008.9,14.6,49.0,19,0
2016-05-13 19:05:00,7.8,7.8,7.8,78.0,4.2,1.3,3.1,0,0.0,0.0,1008.9,14.5,49.0,17,0
2016-05-13 19:10:00,7.8,7.8,7.8,78.0,4.2,1.3,3.1,45,0.0,0.0,1009.0,14.4,49.0,16,0
2016-05-13 19:15:00,7.8,7.8,7.8,78.0,4.2,0.9,3.1,0,0.0,0.0,1009.1,14.4,49.0,20,0
2016-05-13 19:20:00,7.8,7.8,7.8,78.0,4.2,0.9,3.1,337.5,0.0,0.0,1009.1,14.4,49.0,17,0
2016-05-13 19:25:00,7.8,7.8,7.8,78.0,4.2,0.4,1.8,337.5,0.0,0.0,1009.1,14.5,49.0,10,0
2016-05-13 19:30:00,7.8,7.8,7.8,78.0,4.2,0.0,0.9,0,0.0,0.0,1009.1,14.5,50.0,5,0
2016-05-13 19:35:00,7.8,6.9,7.8,78.0,4.2,1.8,3.6,337.5,0.0,0.0,1009.2,14.5,50.0,0,0
2016-05-13 19:40:00,7.8,6.1,7.8,78.0,4.2,2.7,4.9,0,0.0,0.0,1009.2,14.4,50.0,0,0
2016-05-13 19:45:00,7.8,7.8,7.8,78.0,4.2,1.3,3.6,337.5,0.0,0.0,1009.2,14.5,50.0,0,0
2016-05-13 19:50:00,7.7,6.3,7.7,78.0,4.1,2.2,4.0,337.5,0.0,0.0,1009.3,14.4,49.0,0,0
2016-05-13 19:55:00,7.7,6.3,7.7,78.0,4.1,2.2,5.4,22.5,0.0,0.0,1009.4,14.5,49.0,0,0
2016-05-13 20:00:00,7.7,6.7,7.7,77.0,3.9,1.8,4.0,45,0.0,0.0,1009.7,14.3,49.0,0,0
2016-05-13 20:05:00,7.7,7.7,7.7,77.0,3.9,0.9,3.6,292.5,0.0,0.0,1009.6,14.2,49.0,0,0
2016-05-13 20:10:00,7.7,7.7,7.7,77.0,3.9,0.9,2.2,0,0.0,0.0,1009.8,14.2,49.0,0,0
2016-05-13 20:15:00,7.7,6.7,7.7,77.0,3.9,1.8,4.5,337.5,0.0,0.0,1009.8,14.2,49.0,0,0
2016-05-13 20:20:00,7.6,6.2,7.6,77.0,3.8,2.2,4.5,22.5,0.0,0.0,1009.9,14.2,49.0,0,0
2016-05-13 20:25:00,7.6,6.1,7.6,77.0,3.8,2.2,4.9,315,0.0,0.0,1009.8,14.2,49.0,0,0
2016-05-13 20:30:00,7.6,6.5,7.6,77.0,3.8,1.8,4.5,22.5,0.0,0.0,1009.9,14.2,48.0,0,0
2016-05-13 20:35:00,7.5,5.2,7.5,76.0,3.5,3.6,6.3,45,0.0,0.0,1009.8,14.1,48.0,0,0
2016-05-13 20:40:00,7.4,5.6,7.4,75.0,3.3,2.7,6.3,45,0.0,0.0,1009.7,13.9,48.0,0,0
2016-05-13 20:45:00,7.3,5.8,7.3,74.0,3.0,2.2,8.0,45,0.0,0.0,1009.8,13.9,46.0,0,0
2016-05-13 20:50:00,7.2,5.1,7.2,73.0,2.7,3.1,6.7,22.5,0.0,0.0,1009.8,13.9,46.0,0,0
2016-05-13 20:55:00,7.2,5.4,7.2,73.0,2.7,2.7,5.4,0,0.0,0.0,1009.8,13.9,46.0,0,0
2016-05-13 21:00:00,7.2,5.4,7.2,73.0,2.7,2.7,4.5,0,0.0,0.0,1009.7,13.8,46.0,0,0
2016-05-13 21:05:00,7.2,5.4,7.2,73.0,2.7,2.7,5.8,0,0.0,0.0,1009.7,13.6,46.0,0,0
2016-05-13 21:10:00,7.2,7.2,7.2,73.0,2.7,1.3,4.9,292.5,0.0,0.0,1009.9,13.6,47.0,0,0
2016-05-13 21:15:00,7.2,5.3,7.2,73.0,2.7,2.7,4.9,45,0.0,0.0,1010.0,13.6,46.0,0,0
2016-05-13 21:20:00,7.2,5.7,7.2,73.0,2.7,2.2,4.5,22.5,0.0,0.0,1009.9,13.7,46.0,0,0
2016-05-13 21:25:00,7.1,5.6,7.1,73.0,2.6,2.2,5.4,337.5,0.0,0.0,1010.0,13.7,46.0,0,0
2016-05-13 21:30:00,7.1,5.2,7.1,73.0,2.5,2.7,4.9,0,0.0,0.0,1010.0,13.7,46.0,0,0
2016-05-13 21:35:00,7.0,5.9,7.0,73.0,2.5,1.8,4.0,22.5,0.0,0.0,1010.1,13.7,47.0,0,0
2016-05-13 21:40:00,6.9,5.8,6.9,73.0,2.4,1.8,3.6,0,0.0,0.0,1010.1,13.7,46.0,0,0
2016-05-13 21:45:00,6.9,6.9,6.9,73.0,2.4,1.3,3.1,0,0.0,0.0,1010.1,13.7,46.0,0,0
2016-05-13 21:50:00,6.8,6.8,6.8,73.0,2.3,0.9,3.1,22.5,0.0,0.0,1010.1,13.7,46.0,0,0
2016-05-13 21:55:00,6.8,5.7,6.8,73.0,2.3,1.8,4.0,337.5,0.0,0.0,1010.2,13.8,45.0,0,0
2016-05-13 22:00:00,6.8,6.8,6.8,72.0,2.1,1.3,2.7,337.5,0.0,0.0,1010.2,13.8,45.0,0,0
2016-05-13 22:05:00,6.8,5.2,6.8,72.0,2.1,2.2,5.4,337.5,0.0,0.0,1010.2,13.8,45.0,0,0
2016-05-13 22:10:00,6.8,5.2,6.8,72.0,2.1,2.2,4.0,337.5,0.0,0.0,1010.3,13.9,45.0,0,0
2016-05-13 22:15:00,6.7,5.2,6.7,72.0,2.0,2.2,4.5,337.5,0.0,0.0,1010.4,13.9,45.0,0,0
2016-05-13 22:20:00,6.7,5.6,6.7,73.0,2.2,1.8,3.1,292.5,0.0,0.0,1010.3,13.9,45.0,0,0
2016-05-13 22:25:00,6.7,6.7,6.7,73.0,2.2,1.3,2.7,22.5,0.0,0.0,1010.3,13.9,45.0,0,0
2016-05-13 22:30:00,6.7,6.7,6.7,73.0,2.2,1.3,3.1,337.5,0.0,0.0,1010.4,13.8,45.0,0,0
2016-05-13 22:35:00,6.6,5.5,6.6,73.0,2.1,1.8,4.5,337.5,0.0,0.0,1010.3,13.6,46.0,0,0
2016-05-13 22:40:00,6.6,6.6,6.6,74.0,2.3,0.9,2.7,315,0.0,0.0,1010.3,13.6,46.0,0,0
2016-05-13 22:45:00,6.6,6.6,6.6,74.0,2.3,0.9,2.7,22.5,0.0,0.0,1010.3,13.6,45.0,0,0
2016-05-13 22:50:00,6.4,6.4,6.4,74.0,2.1,1.3,3.6,337.5,0.0,0.0,1010.4,13.5,46.0,0,0
2016-05-13 22:55:00,6.4,5.3,6.4,74.0,2.1,1.8,3.6,315,0.0,0.0,1010.4,13.5,46.0,0,0
2016-05-13 23:00:00,6.4,6.4,6.4,74.0,2.1,1.3,4.0,315,0.0,0.0,1010.5,13.4,46.0,0,0
2016-05-13 23:05:00,6.4,4.8,6.4,74.0,2.1,2.2,3.6,337.5,0.0,0.0,1010.5,13.4,46.0,0,0